[TLELIST] Archives

 

[list_settings.list_name] Current TLEs

July 10th 2009 PST

HST 1 20580U 90037B 09187.79703538 +.00000333 +00000-0 +12759-4 0 04173 2 20580 028.4707 334.3116 0003564 130.6996 229.3951 15.00813792852808 ISS (ZARYA) 1 25544U 98067A 09191.16907351 .00007355 00000-0 54195-4 0 1891 2 25544 051.6370 188.8844 0007455 205.8711 249.3919 15.74267895609578 CXO 1 25867U 99040B 09190.29166667 -.00000045 +00000-0 +10000-3 0 03439 2 25867 065.5315 068.3732 7569041 275.7922 358.3549 00.37805061005091 ____________________________________________________________________ These 2-Line ...Continue Reading

[list_settings.list_name] Current TLEs

July 9th 2009 PST

HST 1 20580U 90037B 09187.79703538 +.00000333 +00000-0 +12759-4 0 04173 2 20580 028.4707 334.3116 0003564 130.6996 229.3951 15.00813792852808 ISS (ZARYA) 1 25544U 98067A 09190.45402711 .00011031 00000-0 74669-4 0 1852 2 25544 051.6362 192.5595 0007614 204.5759 155.5409 15.74261391609464 CXO 1 25867U 99040B 09190.29166667 -.00000045 +00000-0 +10000-3 0 03439 2 25867 065.5315 068.3732 7569041 275.7922 358.3549 00.37805061005091 ____________________________________________________________________ These 2-Line ...Continue Reading

[list_settings.list_name] Current TLEs

July 8th 2009 PST

HST 1 20580U 90037B 09187.79703538 +.00000333 +00000-0 +12759-4 0 04173 2 20580 028.4707 334.3116 0003564 130.6996 229.3951 15.00813792852808 ISS (ZARYA) 1 25544U 98067A 09189.20137882 .00007088 00000-0 52458-4 0 1777 2 25544 051.6381 198.9924 0007690 197.3028 258.9066 15.74235877609268 CXO 1 25867U 99040B 09187.66666667 -.00000158 +00000-0 +10000-3 0 03425 2 25867 065.5213 068.4528 7565150 275.7912 001.0278 00.37805757005080 ____________________________________________________________________ These 2-Line ...Continue Reading

[list_settings.list_name] Current TLEs

July 7th 2009 PST

HST 1 20580U 90037B 09184.87104713 +.00000299 +00000-0 +10095-4 0 04160 2 20580 028.4709 353.4064 0003543 098.9457 261.1520 15.00812797852360 ISS (ZARYA) 1 25544U 98067A 09188.17668086 .00007314 00000-0 54021-4 0 1711 2 25544 051.6384 204.2565 0007864 193.2715 211.8328 15.74220900609107 CXO 1 25867U 99040B 09187.66666667 -.00000158 +00000-0 +10000-3 0 03425 2 25867 065.5213 068.4528 7565150 275.7912 001.0278 00.37805757005080 ____________________________________________________________________ These 2-Line ...Continue Reading

[list_settings.list_name] Current TLEs

July 6th 2009 PST

HST 1 20580U 90037B 09184.87104713 +.00000299 +00000-0 +10095-4 0 04160 2 20580 028.4709 353.4064 0003543 098.9457 261.1520 15.00812797852360 ISS (ZARYA) 1 25544U 98067A 09187.16651382 .00008835 00000-0 64361-4 0 1650 2 25544 051.6392 209.4451 0007887 189.0267 247.4428 15.74210325608944 CXO 1 25867U 99040B 09185.00000000 -.00000212 +00000-0 +10000-3 0 03414 2 25867 065.5164 068.5430 7560165 275.7954 358.0234 00.37806390005075 ____________________________________________________________________ These 2-Line ...Continue Reading

[list_settings.list_name] Current TLEs

July 5th 2009 PST

HST 1 20580U 90037B 09183.87354234 +.00000396 +00000-0 +17621-4 0 04153 2 20580 028.4706 359.9154 0003528 087.8587 272.1955 15.00812828852215 ISS (ZARYA) 1 25544U 98067A 09184.86642361 +.00012880 +00000-0 +91914-4 0 01548 2 25544 051.6386 221.2590 0007610 181.6169 171.2864 15.74178968608579 CXO 1 25867U 99040B 09185.00000000 -.00000212 +00000-0 +10000-3 0 03414 2 25867 065.5164 068.5430 7560165 275.7954 358.0234 00.37806390005075 ____________________________________________________________________ These 2-Line ...Continue Reading

[list_settings.list_name] Current TLEs

July 4th 2009 PST

HST 1 20580U 90037B 09182.21105557 +.00001468 +00000-0 +10000-3 0 04145 2 20580 028.4715 010.7573 0003745 065.8123 294.2958 15.00816593851967 ISS (ZARYA) 1 25544U 98067A 09184.63861228 .00012881 00000-0 91947-4 0 1512 2 25544 051.6381 222.4298 0007559 181.2943 319.7228 15.74172783608549 CXO 1 25867U 99040B 09185.00000000 -.00000212 +00000-0 +10000-3 0 03414 2 25867 065.5164 068.5430 7560165 275.7954 358.0234 00.37806390005075 ____________________________________________________________________ These 2-Line ...Continue Reading

[list_settings.list_name] Current TLEs

July 3rd 2009 PST

HST 1 20580U 90037B 09182.21105557 +.00001468 +00000-0 +10000-3 0 04145 2 20580 028.4715 010.7573 0003745 065.8123 294.2958 15.00816593851967 ISS (ZARYA) 1 25544U 98067A 09182.83210648 -.00012261 +00000-0 -79402-4 0 01398 2 25544 051.6394 231.7114 0007698 173.9945 162.7813 15.74119689608257 CXO 1 25867U 99040B 09182.37500000 -.00000131 +00000-0 +10000-3 0 03405 2 25867 065.5061 068.6192 7552723 275.8119 000.6721 00.37805774005067 ____________________________________________________________________ These 2-Line ...Continue Reading

[list_settings.list_name] Current TLEs

July 2nd 2009 PST

HST 1 20580U 90037B 09180.01656090 +.00000269 +00000-0 +78522-5 0 04136 2 20580 028.4708 025.0868 0003353 048.7292 311.3646 15.00811505851634 ISS (ZARYA) 1 25544U 98067A 09181.88069444 +.00009900 +00000-0 +71958-4 0 01334 2 25544 051.6388 236.5946 0007999 169.9673 171.6662 15.74086380608109 CXO 1 25867U 99040B 09182.37500000 -.00000131 +00000-0 +10000-3 0 03405 2 25867 065.5061 068.6192 7552723 275.8119 000.6721 00.37805774005067 ____________________________________________________________________ These 2-Line ...Continue Reading

[list_settings.list_name] Current TLEs

July 1st 2009 PST

HST 1 20580U 90037B 09180.01656090 +.00000269 +00000-0 +78522-5 0 04136 2 20580 028.4708 025.0868 0003353 048.7292 311.3646 15.00811505851634 ISS (ZARYA) 1 25544U 98067A 09180.75945760 +.00008918 +00000-0 +65345-4 0 01277 2 25544 051.6391 242.3543 0007949 164.9874 298.6699 15.74058728607939 CXO 1 25867U 99040B 09177.04166667 +.00000084 +00000-0 +10000-3 0 03394 2 25867 065.4783 068.7929 7542134 275.8612 354.5032 00.37807641005048 ____________________________________________________________________ These 2-Line ...Continue Reading
  • This mailing list is a public mailing list - anyone may join or leave, at any time.
  • This mailing list is announce-only.

International Space Station (ISS) / Hubble Space Telescope (HST) / Chandra X-Ray Observatory Orbital Data via EMAIL

Privacy Policy:

Private list